Location: Unspecified
(47.2333°N, 39.7000°E)
Time: 22:25:52
(UTC+00:00)

ISS - Pass Details

Date: 10 July 2022
Orbit: 412 x 420 km, 51.6° (Epoch: 17 August)

Event Time Altitude Azimuth Distance (km) Brightness Sun altitude
Rises 00:30:58 0° 293° (WNW) 2,366 -0.1 -9.1°
Reaches altitude 10° 00:33:05 10° 298° (WNW) 1,502 -1.1 -8.8°
Maximum altitude 00:36:25 60° 18° (NNE) 488 -3.1 -8.4°
Drops below altitude 10° 00:39:46 10° 100° (E) 1,503 -0.4 -8.0°
Sets 00:41:53 0° 104° (ESE) 2,367 0.5 -7.8°
